Location: Moy Burn
(57.3833°N, 4.0667°W)
Time: 10:04:53
(UTC+00:00)

COSMOS 2406 - Pass Details

Date: 08 August 2020
Orbit: 845 x 862 km, 71.0° (Epoch: 21 September)

Event Time Altitude Azimuth Distance (km) Brightness Sun altitude
Rises 21:32:05 0° 214° (SW) 3,428 6.2 -8.8°
Reaches altitude 10° 21:34:32 10° 215° (SW) 2,493 5.5 -9.0°
Maximum altitude 21:40:17 88° 304° (NW) 866 3.3 -9.5°
Drops below altitude 10° 21:46:03 10° 36° (NE) 2,496 5.9 -10.0°
Sets 21:48:30 0° 37° (NE) 3,433 6.6 -10.2°
